Regional Weather Roundup
Issued by NWS Midland/Odessa, TX

Skip options and go directly to product.
Home | Oldest Version | Next Version | Current Version | All | Text Only | Save Text | Print | Product List | Glossary On

Skip product version selection by date and time.   
273
ASUS44 KMAF 230302
RWRMAF
MIDLAND AREA WEATHER ROUNDUP
NATIONAL WEATHER SERVICE MIDLAND TX
1000 PM CDT TUE APR 22 2014

...IN SOUTHWEST TEXAS AND SOUTHEAST NEW MEXICO...

CITY           SKY/WX    TMP DP  RH WIND       PRES   REMARKS
ALPINE         CLEAR     72  40  31 SE13      30.03S
ANDREWS        FAIR      74  42  32 SE10      29.93R
ARTESIA        CLEAR     75  45  33 S18       29.87S
BIG SPRING     CLEAR     76  39  26 E10       29.96R
CARLSBAD       CLEAR     71  44  37 S8        29.86S
DRYDEN           N/A     83  46  27 SE10      29.90R
FORT STOCKTON  CLEAR     77  42  28 SE15      29.91F
GUAD PASS      PTCLDY    65  42  43 NE25      30.00S
HOBBS          CLEAR     68  41  37 SE8       29.94R
MARFA          CLEAR     70  39  32 E15       30.01R
MIDLAND AIRPK  CLEAR     78  38  23 SE9       29.93S
MIDLAND INTL   CLEAR     76  41  28 SE14      29.93R
ODESSA           N/A    N/A N/A N/A MISG      29.93R
PECOS          CLEAR     67  55  63 E8        29.86S
PRESIDIO       FAIR      84  39  19 E15       29.83R
SEMINOLE       CLEAR     72  40  30 SE9       29.94R
SNYDER         CLEAR     74  38  27 SE10      29.96R
WINK           CLEAR     75  49  39 SE7       29.88R
$$
...OTHER STATIONS IN TEXAS...

CITY           SKY/WX    TMP DP  RH WIND       PRES   REMARKS
ABILENE        CLEAR     69  45  41 SE8       29.96R
AMARILLO       CLEAR     70  39  32 SE21      29.92R
AUSTIN         CLEAR     65  59  81 CALM      29.94R
BROWNSVILLE    CLEAR     71  68  90 SE7       29.94R
CORPUS CHRISTI MOCLDY    74  67  78 S9        29.93R
DALLAS FTW     CLEAR     72  54  53 E6        29.95R
DEL RIO        CLEAR     83  50  31 E8        29.86R
EL PASO        MOCLDY    81  32  17 S12       29.82R
HOUSTON INT    PTCLDY    71  62  73 S3        29.93R
LUBBOCK        CLEAR     72  35  25 SE17      29.93S
SAN ANGELO     CLEAR     73  44  35 E8        29.94R
SAN ANTONIO    CLEAR     76  56  49 E5        29.94R
WACO           CLEAR     68  57  68 E5        29.95R
WICHITA FALLS  NOT AVBL
$$
...OTHER LOCATIONS IN NEW MEXICO...

CITY           SKY/WX    TMP DP  RH WIND       PRES   REMARKS
ALAMAGORDO     PTCLDY    75  32  20 S10       29.84S
ALBUQUERQUE    PTCLDY    72  28  19 S14       29.86S
CANNON AFB     CLEAR     69  40  35 S13       29.93R
CLOVIS         CLEAR     66  39  37 S14       29.95S
HOLLOMAN AFB   PTCLDY    75  32  20 S7        29.83R
ROSWELL        PTCLDY    75  41  29 S13       29.86R
RUIDOSO        MOCLDY    63  32  31 S10       30.06R
SANTA FE       MOCLDY    68  27  21 S14       29.91F
TRUTH OR CONSE PTCLDY    73  21  14 SW8       29.85R
TUCUMCARI      CLEAR     68  44  42 SE10      29.86S
$$

USA.gov is the U.S. government's official web portal to all federal, state and local government web resources and services.